GEFSMW_con_probscp_150.txt.gz
Probability
23 22 20 16 12 9 9 9 7 6 6 4 3 2 1 0 0 0 0 0 0 0 0 0 0 0 0 0 0 0 0 0 0 0 0 0 0 0 0 0 0 0 0
22 21 17 15 12 10 9 9 7 5 4 4 4 4 2 1 1 1 0 0 0 0 0 0 0 0 0 0 0 0 0 0 0 0 0 0 0 0 0 0 0 0 0
21 18 15 12 11 10 9 8 5 4 3 4 6 5 3 2 2 2 1 0 0 0 0 0 0 0 0 0 0 0 0 0 0 0 0 0 0 0 0 0 0 0 0
17 16 14 11 10 8 8 6 5 3 3 4 6 6 4 3 3 3 2 0 0 0 0 0 0 0 0 0 0 0 0 0 0 0 0 0 0 0 0 0 0 0 0
13 12 12 11 8 7 7 6 5 3 3 5 6 6 4 3 2 2 1 0 0 0 0 0 0 0 0 0 0 0 0 0 0 0 0 0 0 0 0 0 0 0 0
9 8 9 9 8 6 6 6 6 5 5 6 6 6 4 2 1 1 0 0 0 0 0 0 0 0 0 0 0 0 0 0 0 0 0 0 0 0 0 0 0 0 0
6 6 7 8 8 7 6 6 6 6 6 6 6 5 4 1 0 0 0 0 0 0 0 0 0 0 0 0 0 0 0 0 0 0 0 0 0 0 0 0 0 0 0
3 4 6 9 8 6 5 5 5 5 6 6 6 4 3 2 1 0 0 0 0 0 0 0 0 0 0 0 0 0 0 0 0 0 0 0 0 0 0 0 0 0 0
1 2 5 7 6 3 2 3 4 5 6 6 6 4 3 2 1 0 0 0 0 0 0 0 0 0 0 0 0 0 0 0 0 0 0 0 0 0 0 0 0 0 0
0 1 2 4 3 1 0 1 2 4 5 5 6 5 4 1 0 0 0 0 0 0 0 0 0 0 0 0 0 0 0 0 0 0 0 0 0 0 0 0 0 0 0
0 0 1 1 1 1 0 0 1 3 4 5 6 6 4 2 0 0 0 0 0 0 0 0 0 0 0 0 0 0 0 0 0 0 0 0 0 0 0 0 0 0 0
0 0 1 2 2 2 1 0 1 1 3 4 6 6 4 2 1 0 0 0 0 0 0 0 0 0 0 0 0 0 0 0 0 0 0 0 0 0 0 0 0 0 0
0 0 1 2 3 2 1 0 0 0 2 4 5 5 4 3 2 1 0 0 0 0 0 0 0 0 0 0 0 0 0 0 0 0 0 0 0 0 0 0 0 0 0
0 0 1 1 1 2 2 1 0 1 2 3 4 4 3 3 3 2 1 0 0 0 0 0 0 0 0 0 0 0 0 0 0 0 0 0 0 0 0 0 0 0 0
0 0 0 1 1 3 3 2 2 2 3 4 4 3 3 4 3 2 1 0 0 0 0 0 0 0 0 0 0 0 0 0 0 0 0 0 0 0 0 0 0 0 0
0 0 0 0 2 4 5 4 4 5 5 6 5 4 4 4 3 1 0 0 0 0 0 0 0 0 0 0 0 0 0 0 0 0 0 0 0 0 0 0 0 0 0
0 0 0 0 1 3 5 5 6 7 7 7 6 6 5 3 1 0 0 0 0 0 0 0 0 0 0 0 0 0 0 0 0 0 0 0 0 0 0 0 0 0 0
0 0 0 0 0 1 3 5 7 9 9 7 6 5 4 2 1 0 0 0 0 0 0 0 0 0 0 0 0 0 0 0 0 0 0 0 0 0 0 0 0 0 0
0 0 0 0 0 1 3 5 7 9 9 8 6 4 2 1 0 0 0 0 0 0 0 0 0 0 0 0 0 0 0 0 0 0 0 0 0 0 0 0 0 0 0
0 0 0 0 0 1 5 6 7 7 8 6 4 2 1 0 0 0 0 0 0 0 0 0 0 0 0 0 0 0 0 0 0 0 0 0 0 0 0 0 0 0 0
0 0 0 0 0 1 4 5 4 4 4 3 2 1 0 0 0 0 0 0 0 0 0 0 0 0 0 0 0 0 0 0 0 0 0 0 0 0 0 0 0 0 0
0 0 0 0 0 1 2 2 1 1 1 1 1 0 0 0 0 0 0 0 0 0 0 0 0 0 0 0 0 0 0 0 0 0 0 0 0 0 0 0 0 0 0
0 0 0 0 0 0 0 0 0 0 0 0 0 0 0 0 0 0 0 0 0 0 0 0 0 0 0 0 0 0 0 0 0 0 0 0 0 0 0 0 0 0 0
0 0 0 0 0 0 0 0 0 0 0 0 0 0 0 0 0 0 0 0 0 0 0 0 1 1 1 1 0 0 0 0 0 0 0 0 0 0 0 0 0 0 0
0 0 0 0 0 0 0 1 1 0 0 0 0 0 0 0 0 0 0 0 0 0 0 0 1 2 2 1 0 0 0 0 0 0 0 0 0 0 0 0 0 0 0
0 0 0 0 0 0 1 2 2 1 0 0 0 0 0 0 0 0 0 0 0 0 0 0 1 1 1 0 0 0 0 0 0 0 0 0 0 0 0 0 0 0 0

GEFSMW_con_probscp_156.txt.gz
Probability
32 29 27 29 30 29 25 23 24 29 35 35 32 29 22 13 8 6 5 2 1 0 0 0 0 0 0 0 0 0 0 0 0 0 0 0 0 0 0 0 0 0 0
31 29 29 30 31 30 28 26 28 33 37 39 38 33 26 18 12 9 7 4 1 0 0 0 0 0 0 0 0 0 0 0 0 0 0 0 0 0 0 0 0 0 0
29 29 30 31 30 29 27 27 30 35 39 41 40 33 27 21 15 11 9 7 3 1 0 0 0 0 0 0 0 0 0 0 0 0 0 0 0 0 0 0 0 0 0
26 28 30 29 27 24 22 23 28 32 35 37 34 28 23 20 15 12 12 10 6 3 0 0 0 0 0 0 0 0 0 0 0 0 0 0 0 0 0 0 0 0 0
22 25 28 28 24 20 17 18 22 25 28 29 28 24 21 20 18 15 15 13 9 4 1 0 0 0 0 0 0 0 0 0 0 0 0 0 0 0 0 0 0 0 0
18 21 25 27 24 19 16 17 18 19 21 24 25 23 21 21 20 17 16 14 10 6 2 0 0 0 0 0 0 0 0 0 0 0 0 0 0 0 0 0 0 0 0
14 17 21 24 24 20 18 18 18 16 18 21 23 22 20 19 19 18 16 15 11 7 3 1 1 1 0 0 0 0 0 0 0 0 0 0 0 0 0 0 0 0 0
10 13 16 19 20 18 17 18 17 16 15 17 19 19 17 18 19 19 17 15 12 7 2 2 2 1 0 0 0 0 0 0 0 0 0 0 0 0 0 0 0 0 0
6 8 10 12 13 13 14 15 14 14 14 15 16 15 15 17 18 18 18 15 12 6 2 1 2 1 0 0 0 0 0 0 0 0 0 0 0 0 0 0 0 0 0
3 4 4 5 6 9 11 12 11 11 12 12 12 11 14 16 17 17 17 15 11 6 2 1 1 2 1 0 0 0 0 0 0 0 0 0 0 0 0 0 0 0 0
2 1 1 1 3 6 9 10 9 7 7 8 8 9 12 14 14 14 14 12 10 6 3 2 2 2 1 0 0 0 0 0 0 0 0 0 0 0 0 0 0 0 0
3 2 1 1 2 4 7 7 6 4 3 3 4 7 10 12 12 11 11 10 9 7 4 3 2 2 1 1 1 0 0 0 0 0 0 0 0 0 0 0 0 0 0
5 5 3 3 2 3 5 5 4 3 1 1 2 5 8 10 11 11 10 10 9 8 6 4 2 1 1 2 2 1 1 0 0 0 0 0 0 0 0 0 0 0 0
9 9 7 6 4 3 3 4 3 2 1 0 1 4 8 10 11 10 10 10 9 9 7 5 3 1 1 3 3 2 1 0 0 0 0 0 0 0 0 0 0 0 0
11 11 9 8 7 5 5 5 4 3 3 2 2 4 8 10 11 10 9 9 9 9 9 7 5 3 2 2 2 1 1 1 1 1 2 1 0 0 0 0 0 0 0
11 10 9 9 9 9 9 8 8 7 6 5 3 4 6 8 9 10 9 8 8 9 10 9 6 4 2 1 1 0 0 1 2 3 3 2 0 0 0 0 0 0 0
9 9 9 9 9 10 12 11 11 11 10 8 6 5 5 7 8 9 9 9 8 8 9 8 7 5 3 1 0 0 0 1 3 4 3 2 1 0 0 0 1 1 1
8 9 9 8 9 9 11 12 13 13 12 11 10 9 9 9 9 9 11 12 10 8 7 7 7 7 5 1 0 0 0 2 4 5 4 3 2 1 0 1 2 3 2
8 10 10 8 10 11 13 14 14 13 13 13 12 12 13 13 12 13 15 16 13 9 7 6 7 8 5 2 0 0 1 3 6 6 4 3 2 1 0 2 5 5 5
10 12 12 12 15 17 20 20 18 15 14 14 14 14 14 14 14 16 18 20 19 14 9 7 7 8 6 2 0 0 2 4 7 7 6 3 1 0 0 3 6 7 7
12 14 16 19 24 28 29 28 24 20 18 18 18 17 17 16 16 21 25 26 24 20 15 12 12 11 8 3 0 0 1 3 7 9 8 5 1 0 0 2 4 6 6
12 13 18 24 31 35 36 34 30 25 22 21 21 20 21 19 21 28 33 32 28 25 23 21 18 16 12 6 1 0 0 1 4 7 7 4 1 0 0 0 1 2 2
10 12 17 24 30 35 37 36 34 31 27 25 24 24 25 25 26 32 35 32 28 24 23 22 19 17 15 10 4 1 0 0 2 4 4 1 0 0 0 0 0 0 0
13 15 18 23 29 33 34 34 34 34 32 30 30 31 29 28 30 32 31 26 21 18 18 18 15 16 17 14 7 3 1 0 0 1 1 0 1 1 0 0 0 0 0
18 19 21 25 30 33 34 35 36 37 35 34 34 34 31 30 32 31 25 17 12 11 12 11 11 13 13 10 5 3 2 0 0 0 0 1 2 2 2 2 2 2 1
19 20 23 27 30 32 35 39 41 41 38 35 33 32 31 31 32 30 21 11 5 6 6 6 6 7 7 4 2 2 1 0 0 0 1 2 4 4 4 4 4 3 3

GEFSMW_con_probscp_162.txt.gz
Probability
70 68 64 60 58 58 59 58 57 56 53 46 39 38 39 38 35 29 24 21 17 12 9 8 5 1 0 0 0 0 0 0 0 0 0 0 0 0 0 0 0 0 0
68 66 62 59 56 55 56 55 53 51 49 45 40 39 40 40 37 30 25 21 17 11 7 6 4 1 0 0 0 0 0 0 0 0 0 0 0 0 0 0 0 0 0
65 62 60 57 55 54 54 52 50 49 48 44 41 40 41 40 36 31 25 20 17 12 8 6 4 1 0 0 0 0 0 0 0 0 0 0 0 0 0 0 0 0 0
58 56 56 56 54 53 51 49 49 50 49 45 41 39 38 36 34 31 25 21 19 15 11 9 6 2 0 0 0 0 0 0 0 0 0 0 0 0 0 0 0 0 0
48 48 50 53 52 49 46 45 46 48 47 44 40 38 35 33 33 30 27 24 21 17 13 12 10 5 1 1 1 1 0 0 0 0 0 0 0 0 0 0 0 0 0
41 41 45 49 49 46 43 41 42 44 45 42 39 36 35 34 33 31 28 25 22 18 15 14 13 9 5 4 4 2 0 0 0 0 0 0 0 0 0 0 0 0 1
37 37 39 44 46 44 42 41 41 42 42 41 38 36 35 35 33 31 28 25 21 18 16 16 15 13 10 7 5 2 0 0 0 0 0 0 0 0 0 0 0 0 1
32 33 34 37 40 41 41 40 40 39 39 39 38 37 36 33 32 31 28 26 23 18 17 17 16 15 12 8 5 3 1 0 0 0 0 0 0 0 0 0 0 0 1
24 26 29 31 35 38 38 37 35 35 34 34 35 35 33 31 30 30 29 28 26 21 18 17 15 14 11 9 8 5 2 1 1 0 0 0 0 0 0 0 0 0 0
16 20 25 30 33 35 34 32 31 30 28 26 26 27 27 28 28 28 28 30 29 25 22 18 15 13 11 10 9 6 3 2 1 0 0 0 0 0 0 0 0 0 0
14 17 24 29 33 33 30 29 28 28 24 21 19 20 22 24 25 26 28 29 30 29 25 21 17 14 11 10 8 5 3 3 2 0 0 0 0 0 0 0 0 0 0
14 18 24 29 32 30 27 25 25 25 22 19 17 18 20 21 20 22 26 27 27 27 25 22 19 16 12 10 8 5 4 4 2 0 0 0 0 0 0 0 1 1 0
16 21 28 32 31 28 25 22 20 19 17 15 14 15 16 16 16 19 24 26 25 23 23 22 20 17 12 10 8 6 4 4 2 1 1 1 1 1 0 1 2 2 1
18 25 33 37 35 29 24 21 17 14 13 12 12 12 13 12 13 18 25 27 23 21 22 21 20 17 12 10 8 5 4 3 3 2 2 2 2 2 1 1 2 3 3
18 26 37 42 38 30 23 20 19 16 15 15 14 15 15 13 14 18 25 26 22 19 20 20 18 15 12 8 6 4 3 3 3 3 2 2 1 1 1 1 2 2 2
16 24 37 45 42 34 25 22 24 25 23 20 20 22 22 19 18 20 24 25 22 20 20 19 17 13 9 5 4 4 4 3 3 2 2 1 0 0 1 1 1 1 1
19 24 36 46 46 39 31 26 26 28 26 24 25 27 27 24 21 21 24 25 25 24 24 21 16 13 8 3 1 2 4 4 4 4 4 2 0 0 1 1 0 0 0
30 30 35 42 44 41 34 28 26 26 25 24 25 27 26 24 22 22 25 30 32 31 29 24 18 14 9 3 0 1 3 4 5 5 5 4 2 1 1 2 1 1 1
37 35 33 37 40 41 38 33 27 26 24 22 24 25 25 24 23 25 30 36 37 36 31 26 22 19 12 4 0 0 1 3 5 5 4 3 3 2 1 2 4 4 4
33 32 30 34 40 44 44 39 32 29 26 24 24 28 31 31 31 33 38 40 39 34 30 27 27 25 18 6 0 0 1 3 5 6 7 5 2 1 1 3 5 6 7
27 29 31 35 45 51 50 43 36 34 33 29 28 33 38 37 38 43 46 44 39 34 31 30 32 31 22 9 2 0 1 3 4 7 9 7 2 0 0 2 3 4 5
24 29 34 39 47 55 55 48 43 42 41 36 35 40 43 39 41 49 50 46 41 36 34 34 34 32 24 12 3 0 0 1 2 5 7 5 2 0 0 0 1 1 1
22 29 36 40 44 51 54 53 50 50 47 42 40 44 45 42 44 50 49 44 39 35 34 34 33 31 26 15 5 0 0 0 1 2 2 1 0 0 0 0 0 0 0
22 28 35 39 40 43 46 49 52 53 51 47 44 45 45 44 45 46 43 37 32 28 28 28 27 25 23 15 7 2 1 0 0 0 0 0 0 0 0 0 0 0 0
25 28 34 39 40 40 41 45 49 52 51 49 47 45 43 41 41 39 33 25 20 18 17 17 16 16 14 9 5 3 1 0 0 0 1 1 1 1 1 1 1 1 0
27 30 34 40 42 42 43 45 48 50 50 50 48 45 42 39 37 35 26 16 12 10 8 7 7 6 5 3 2 2 1 0 0 1 2 2 3 3 3 2 2 2 1

GEFSMW_con_probscp_168.txt.gz
Probability
48 47 46 46 43 41 40 37 32 23 13 9 9 7 4 3 3 3 4 4 5 4 1 0 0 0 0 0 0 0 0 0 0 0 0 0 0 0 0 0 0 0 0
50 49 49 48 45 42 41 39 36 26 14 8 8 7 4 3 3 3 4 5 5 4 1 0 0 0 0 0 0 0 0 0 0 0 0 0 0 0 0 0 0 0 0
50 50 50 49 47 44 43 42 38 30 18 10 8 7 5 4 4 3 4 4 4 3 1 0 0 0 0 0 0 0 0 0 0 0 0 0 0 0 0 0 0 0 0
46 47 48 48 46 44 44 42 38 32 24 15 10 9 8 7 5 4 3 2 1 1 0 0 0 0 0 0 0 0 0 0 0 0 0 0 0 0 0 0 0 0 0
44 46 47 47 45 42 41 39 36 33 28 21 15 12 11 9 7 5 3 2 1 0 0 0 0 0 0 0 0 0 0 0 0 0 0 0 0 0 0 0 0 0 0
45 45 46 46 43 39 37 36 35 34 30 25 19 15 13 11 8 7 5 4 2 2 1 0 0 0 0 0 0 0 0 0 0 0 0 0 0 0 0 0 0 0 0
45 44 43 42 39 36 34 34 34 34 31 26 22 17 14 12 9 7 6 5 4 3 2 2 1 0 0 0 0 0 0 0 0 0 0 0 0 0 0 0 0 0 0
42 40 37 35 34 33 34 34 33 33 32 28 24 19 15 12 9 7 6 5 4 4 4 3 1 0 0 0 0 0 0 0 0 0 0 0 0 0 0 0 0 0 0
36 33 29 28 30 31 32 32 31 31 31 29 25 20 16 12 9 7 6 6 5 4 4 3 1 0 0 0 0 0 0 0 0 0 0 0 0 0 0 0 0 0 0
27 25 24 25 28 30 31 32 30 28 28 27 25 22 17 13 10 9 8 7 6 4 3 3 2 0 0 1 1 0 0 0 0 0 0 0 0 0 0 0 0 0 0
21 22 22 23 25 28 30 30 27 25 23 23 24 22 18 13 11 10 10 7 5 4 4 4 3 1 1 2 2 1 0 0 0 0 0 0 0 0 0 0 0 0 0
22 22 21 20 21 24 26 26 23 21 19 19 20 19 17 13 11 10 9 6 3 4 6 6 4 2 1 2 2 1 0 0 0 0 0 0 0 0 0 0 0 0 0
21 21 20 18 17 19 21 20 19 17 17 16 15 15 14 12 10 10 9 6 4 4 7 7 5 3 1 2 2 1 0 0 0 0 0 0 0 0 0 0 0 0 0
15 15 16 16 15 15 17 18 17 16 15 14 12 11 12 12 11 10 9 7 4 4 6 6 5 3 1 1 1 0 0 0 0 0 0 0 0 0 0 0 0 0 0
11 10 11 13 14 13 15 16 15 14 13 12 9 9 10 12 11 10 8 6 4 3 4 5 5 4 1 0 0 0 0 0 0 0 0 0 0 0 0 0 0 0 0
9 8 8 12 14 13 13 13 12 11 11 10 8 8 9 10 10 9 6 4 2 2 2 3 4 3 1 0 0 0 0 0 0 0 0 0 0 0 0 0 0 0 0
8 7 7 10 13 14 13 11 11 10 8 8 8 9 8 8 8 8 5 2 1 1 1 2 2 2 1 0 0 0 0 0 0 0 0 0 0 0 0 0 0 0 0
10 7 6 9 12 13 13 12 10 8 7 7 8 8 8 8 8 7 5 3 1 1 1 1 1 1 0 0 0 0 0 0 0 0 0 0 0 0 0 0 0 0 0
12 9 8 10 11 11 13 12 8 6 5 6 7 7 7 7 7 6 6 5 4 3 2 2 2 1 0 0 0 0 0 0 0 0 0 0 0 0 0 0 0 0 0
11 11 12 12 11 9 10 10 7 4 4 5 6 7 7 8 8 7 7 6 6 4 4 5 3 1 0 0 0 0 0 0 0 0 0 0 0 0 0 0 0 0 0
11 11 13 14 12 9 8 8 6 5 4 4 5 6 8 8 8 8 7 7 7 6 6 6 5 2 0 0 0 0 0 0 0 0 0 0 0 0 0 0 0 0 0
10 11 13 13 13 12 9 7 6 5 5 4 3 4 5 6 7 8 8 9 9 9 8 7 6 4 2 1 0 0 0 0 0 0 0 0 0 0 0 0 0 0 0
8 9 10 10 12 13 11 9 8 8 7 5 4 4 4 5 6 8 9 10 11 11 9 8 6 5 4 2 1 0 0 0 0 0 0 0 0 0 0 0 0 0 0
6 7 8 8 8 10 11 12 11 11 10 8 7 6 6 7 7 8 8 8 9 9 8 7 5 4 4 3 1 0 0 0 0 0 0 0 0 0 0 0 0 0 0
6 6 5 5 4 6 10 12 13 14 13 11 9 8 8 7 6 5 5 5 5 5 5 4 3 3 2 2 1 0 0 0 0 0 0 0 0 0 0 0 0 0 0
6 5 4 4 3 5 7 10 12 15 16 14 10 8 7 6 5 4 3 4 4 3 2 3 3 2 1 1 0 0 0 0 0 0 0 0 0 0 0 0 0 0 0